User: anonymous   Login
Location: Unspecified
(0.0000°N, 0.0000°E)
Time: 16:05:56
(UTC+00:00)
Language:

Aussat K1 - Orbit

View from above orbital plane
View from above orbital plane
View from above satellite
View from above satellite

Ground track
Ground track

The orbit data is extracted from the following two-line orbital elements,

1 15993U 85076B   15086.79867350 -.00000285  00000-0  00000+0 0  9993
2 15993 015.0194 016.0850 0002018 247.6940 315.0006 00.99759272 78686
Epoch (UTC): 27 March 2015 19:10:05
Eccentricity: 0.0002018
inclination: 15.0194°
perigee height: 35922 km
apogee height: 35939 km
right ascension of ascending node: 16.0850°
argument of perigee: 247.6940°
revolutions per day: 0.99759272
mean anomaly at epoch: 315.0006°
orbit number at epoch: 7868

The dashed part of the orbit path shows where the satellite is in the earth's shadow,  

DLR